sat.trackr.live / text

‹ back to catalog

TOM-1

NORAD 69872 · 2026-156D

PAYLOAD ACTIVE UNKNOWN

§ Identity

Operator
Country
GER
Launch date
2026-07-07
Launch site
AFWTR
Launch vehicle
Mass (kg)
RCS (m²)

External: N2YO · Heavens-Above · Gunter

§ Orbital elements

Epoch: 2026-09-20T04:22:20.807328Z

Period
96.59 min
Inclination
97.7429°
Eccentricity
0.0002619
Mean motion
14.90821165 rev/d
Perigee alt
593.5 km
Apogee alt
597.2 km
Semi-major
6,973.5 km
B*
7.0041e-5
RAAN
162.2455°
Arg perigee
199.2443°
Mean anomaly
160.8677°
Rev number
1,115

§ Raw data

TOM-11 69872U 26156D   26263.18218527  .00000634  00000+0  70041-4 0  99932 69872  97.7429 162.2455 0002619 199.2443 160.8677 14.90821165 11157

JSON: /api/v1/satellites/69872 · /tle

For live sub-satellite position, see the globe view (requires WebGL).

§ Visibility from observer

Set your observer location to see the next 7 days of passes ≥ 10°. The values pass through the URL so the page stays shareable.

No JS? Fill the form by hand. The geolocation button needs JavaScript.